C6066 KNTU-KPIE

Flight info

Callsign C6066
Flight time N/A
Altitude 1000
Route KNTU DCT NEWRO DCT WINAL V472 ZAGGY T303 ISO V1 CRG DCT UHUCI DCT BLABR DCT KPIE
Aircraft H60/L-G/C

Departure

Time 2026-04-19 15:38
Airport Oceana Naval Air Station (KNTU)

Arrival

Time N/A
Airport St. Petersburg Clearwater International Airport (KPIE)
Time Latitude Longitude Altitude Speed Heading
2026-04-19 15:37 36.81489 -76.04200 31 ft 0 kts 316°
2026-04-19 15:37 36.81487 -76.04223 66 ft 10 kts 205°
2026-04-19 15:38 36.81086 -76.04434 238 ft 114 kts 209°
2026-04-19 15:38 36.80096 -76.04556 553 ft 165 kts 177°
2026-04-19 15:38 36.78875 -76.04731 637 ft 187 kts 189°
2026-04-19 15:38 36.77551 -76.04969 623 ft 193 kts 193°
2026-04-19 15:39 36.76215 -76.05265 632 ft 198 kts 193°
2026-04-19 15:39 36.74880 -76.05539 643 ft 189 kts 193°
2026-04-19 15:39 36.73575 -76.05830 659 ft 192 kts 193°
2026-04-19 15:39 36.72290 -76.06158 661 ft 187 kts 193°
2026-04-19 15:40 36.71002 -76.06441 651 ft 190 kts 193°
2026-04-19 15:40 36.69716 -76.06729 656 ft 188 kts 193°
2026-04-19 15:40 36.68397 -76.07008 630 ft 198 kts 193°
2026-04-19 15:40 36.67118 -76.07293 645 ft 185 kts 193°
2026-04-19 15:41 36.65822 -76.07580 650 ft 187 kts 193°
2026-04-19 15:41 36.64575 -76.07884 651 ft 185 kts 193°
2026-04-19 15:41 36.63266 -76.08191 652 ft 198 kts 193°
2026-04-19 15:41 36.61935 -76.08540 654 ft 199 kts 193°
2026-04-19 15:42 36.60578 -76.08844 654 ft 195 kts 193°
2026-04-19 15:42 36.59277 -76.09157 655 ft 195 kts 193°
2026-04-19 15:42 36.57955 -76.09484 654 ft 190 kts 193°
2026-04-19 15:42 36.56700 -76.09810 658 ft 178 kts 193°
2026-04-19 15:43 36.55514 -76.10068 635 ft 168 kts 193°
2026-04-19 15:43 36.54390 -76.10286 639 ft 161 kts 193°
2026-04-19 15:43 36.53287 -76.10479 637 ft 158 kts 193°
2026-04-19 15:44 36.51167 -76.10872 640 ft 153 kts 193°
2026-04-19 15:44 36.50112 -76.11092 647 ft 151 kts 193°
2026-04-19 15:44 36.49083 -76.11312 635 ft 152 kts 193°
2026-04-19 15:44 36.48037 -76.11512 641 ft 153 kts 193°
2026-04-19 15:45 36.46985 -76.11730 644 ft 154 kts 193°
2026-04-19 15:45 36.45928 -76.11938 641 ft 154 kts 193°
2026-04-19 15:45 36.44865 -76.12157 639 ft 155 kts 193°
2026-04-19 15:45 36.43817 -76.12398 637 ft 151 kts 193°
2026-04-19 15:46 36.42785 -76.12632 634 ft 151 kts 193°
2026-04-19 15:46 36.41756 -76.12867 625 ft 149 kts 193°
2026-04-19 15:46 36.40750 -76.13076 632 ft 145 kts 193°
2026-04-19 15:46 36.39758 -76.13250 634 ft 143 kts 193°
2026-04-19 15:47 36.38790 -76.13433 637 ft 140 kts 193°
2026-04-19 15:47 36.37830 -76.13625 636 ft 144 kts 195°
2026-04-19 15:47 36.36772 -76.13863 634 ft 163 kts 195°
2026-04-19 15:47 36.35627 -76.14138 612 ft 169 kts 195°
2026-04-19 15:48 36.34450 -76.14382 621 ft 170 kts 195°
2026-04-19 15:48 36.33361 -76.14633 632 ft 154 kts 198°
2026-04-19 15:48 36.32297 -76.14976 640 ft 166 kts 199°
2026-04-19 15:48 36.31175 -76.15410 636 ft 171 kts 206°
2026-04-19 15:49 36.30164 -76.16179 628 ft 171 kts 224°
2026-04-19 15:49 36.29389 -76.17270 635 ft 166 kts 237°
2026-04-19 15:49 36.28714 -76.18390 642 ft 152 kts 237°
2026-04-19 15:49 36.28057 -76.19461 640 ft 156 kts 237°
2026-04-19 15:50 36.27631 -76.20159 639 ft 144 kts 237°
2026-04-19 15:50 36.27054 -76.21102 641 ft 136 kts 237°
2026-04-19 15:50 36.26474 -76.22000 634 ft 131 kts 237°
2026-04-19 15:50 36.25891 -76.22851 640 ft 128 kts 237°
2026-04-19 15:51 36.25316 -76.23685 650 ft 127 kts 237°
2026-04-19 15:51 36.24759 -76.24537 633 ft 127 kts 237°
2026-04-19 15:51 36.24175 -76.25349 643 ft 126 kts 237°
2026-04-19 15:51 36.23618 -76.26183 642 ft 125 kts 237°
2026-04-19 15:52 36.23056 -76.27043 634 ft 139 kts 237°
2026-04-19 15:52 36.22430 -76.28074 632 ft 159 kts 237°
2026-04-19 15:52 36.21753 -76.29183 631 ft 158 kts 237°
2026-04-19 15:52 36.21086 -76.30319 629 ft 166 kts 237°
2026-04-19 15:53 36.20423 -76.31430 634 ft 157 kts 237°
2026-04-19 15:53 36.19776 -76.32523 639 ft 158 kts 237°
2026-04-19 15:53 36.19126 -76.33633 637 ft 157 kts 237°
2026-04-19 15:53 36.18488 -76.34717 636 ft 155 kts 237°
2026-04-19 15:54 36.17833 -76.35805 634 ft 156 kts 237°
2026-04-19 15:54 36.17193 -76.36876 633 ft 159 kts 237°
2026-04-19 15:54 36.16558 -76.37946 647 ft 156 kts 237°
2026-04-19 15:54 36.15902 -76.39056 656 ft 158 kts 237°
2026-04-19 15:55 36.15252 -76.40139 658 ft 161 kts 237°
2026-04-19 15:55 36.14569 -76.41238 661 ft 159 kts 237°
2026-04-19 15:55 36.13891 -76.42321 659 ft 161 kts 237°
2026-04-19 15:55 36.13213 -76.43375 660 ft 158 kts 237°
2026-04-19 15:56 36.12512 -76.44452 660 ft 159 kts 237°
2026-04-19 15:56 36.11822 -76.45549 660 ft 165 kts 237°
2026-04-19 15:56 36.11132 -76.46662 663 ft 166 kts 237°
2026-04-19 15:56 36.10444 -76.47789 660 ft 160 kts 237°
2026-04-19 15:57 36.09757 -76.48907 665 ft 166 kts 237°
2026-04-19 15:57 36.09080 -76.50044 668 ft 161 kts 237°
2026-04-19 15:57 36.08377 -76.51171 667 ft 166 kts 237°
2026-04-19 15:57 36.07838 -76.52311 670 ft 144 kts 256°
2026-04-19 15:58 36.07478 -76.53423 666 ft 136 kts 255°
2026-04-19 15:58 36.07158 -76.54494 670 ft 130 kts 255°
2026-04-19 15:58 36.06848 -76.55536 669 ft 128 kts 255°
2026-04-19 15:58 36.06521 -76.56556 669 ft 127 kts 255°
2026-04-19 15:59 36.06209 -76.57571 658 ft 125 kts 256°
2026-04-19 15:59 36.05900 -76.58582 662 ft 126 kts 257°
2026-04-19 15:59 36.05684 -76.59633 658 ft 126 kts 261°
2026-04-19 15:59 36.05479 -76.60694 655 ft 127 kts 261°
2026-04-19 16:00 36.05249 -76.61752 653 ft 128 kts 261°
2026-04-19 16:00 36.05007 -76.62785 654 ft 126 kts 261°
2026-04-19 16:00 36.04751 -76.63838 657 ft 126 kts 261°
2026-04-19 16:00 36.04507 -76.64848 650 ft 122 kts 261°
2026-04-19 16:01 36.04262 -76.65840 657 ft 120 kts 261°
2026-04-19 16:01 36.04051 -76.66846 661 ft 123 kts 261°
2026-04-19 16:01 36.03827 -76.67884 653 ft 126 kts 261°
2026-04-19 16:01 36.03591 -76.68919 652 ft 124 kts 261°
2026-04-19 16:02 36.03312 -76.69919 659 ft 122 kts 261°
2026-04-19 16:02 36.03028 -76.70910 657 ft 123 kts 261°
2026-04-19 16:02 36.02786 -76.71929 654 ft 124 kts 261°
2026-04-19 16:02 36.02496 -76.72999 645 ft 146 kts 257°
2026-04-19 16:03 36.01972 -76.74177 645 ft 164 kts 245°
2026-04-19 16:03 36.01356 -76.75340 653 ft 166 kts 245°
2026-04-19 16:03 36.00744 -76.76536 650 ft 157 kts 245°
2026-04-19 16:03 36.00180 -76.77706 647 ft 160 kts 245°
2026-04-19 16:04 35.99597 -76.78904 648 ft 157 kts 245°
2026-04-19 16:04 35.99004 -76.80036 661 ft 160 kts 245°
2026-04-19 16:04 35.98407 -76.81211 658 ft 159 kts 245°
2026-04-19 16:04 35.97792 -76.82357 658 ft 155 kts 245°
2026-04-19 16:05 35.97229 -76.83400 661 ft 140 kts 245°
2026-04-19 16:05 35.96724 -76.84407 665 ft 136 kts 245°
2026-04-19 16:05 35.96233 -76.85392 655 ft 133 kts 245°
2026-04-19 16:05 35.95741 -76.86342 659 ft 132 kts 245°
2026-04-19 16:06 35.95281 -76.87323 657 ft 131 kts 245°
2026-04-19 16:06 35.94785 -76.88262 671 ft 130 kts 245°
2026-04-19 16:06 35.94316 -76.89222 671 ft 131 kts 245°
2026-04-19 16:06 35.93822 -76.90164 674 ft 131 kts 245°
2026-04-19 16:07 35.93299 -76.91085 668 ft 131 kts 245°
2026-04-19 16:07 35.92803 -76.92030 665 ft 131 kts 245°
2026-04-19 16:07 35.92294 -76.92957 661 ft 130 kts 245°
2026-04-19 16:07 35.91762 -76.93848 668 ft 128 kts 245°
2026-04-19 16:08 35.91238 -76.94737 673 ft 129 kts 245°
2026-04-19 16:08 35.90744 -76.95657 667 ft 127 kts 245°
2026-04-19 16:08 35.90280 -76.96554 678 ft 125 kts 245°
2026-04-19 16:08 35.89777 -76.97445 677 ft 128 kts 245°
2026-04-19 16:09 35.89293 -76.98363 669 ft 127 kts 245°
2026-04-19 16:09 35.88820 -76.99289 674 ft 128 kts 245°
2026-04-19 16:09 35.88324 -77.00206 672 ft 129 kts 245°
2026-04-19 16:09 35.87799 -77.01106 673 ft 129 kts 245°
2026-04-19 16:10 35.87290 -77.02016 676 ft 130 kts 245°
2026-04-19 16:10 35.86788 -77.02942 668 ft 129 kts 245°
2026-04-19 16:10 35.86254 -77.03820 677 ft 128 kts 245°
2026-04-19 16:10 35.85757 -77.04732 657 ft 129 kts 249°
2026-04-19 16:11 35.85303 -77.05675 669 ft 127 kts 249°
2026-04-19 16:11 35.84826 -77.06672 659 ft 147 kts 249°
2026-04-19 16:11 35.84303 -77.07834 663 ft 161 kts 249°
2026-04-19 16:11 35.83779 -77.09038 671 ft 160 kts 249°
2026-04-19 16:12 35.83288 -77.10255 666 ft 158 kts 249°
2026-04-19 16:12 35.82804 -77.11476 670 ft 159 kts 249°
2026-04-19 16:12 35.82290 -77.12667 672 ft 155 kts 249°
2026-04-19 16:12 35.81788 -77.13870 672 ft 160 kts 249°
2026-04-19 16:13 35.81280 -77.15071 675 ft 156 kts 249°
2026-04-19 16:13 35.80747 -77.16246 673 ft 158 kts 249°
2026-04-19 16:13 35.80224 -77.17435 671 ft 157 kts 249°
2026-04-19 16:13 35.79711 -77.18630 676 ft 157 kts 249°
2026-04-19 16:14 35.79160 -77.19813 672 ft 160 kts 249°
2026-04-19 16:14 35.78642 -77.21018 672 ft 155 kts 249°
2026-04-19 16:14 35.78127 -77.22222 678 ft 158 kts 249°
2026-04-19 16:14 35.77611 -77.23405 694 ft 156 kts 249°
2026-04-19 16:15 35.77052 -77.24595 681 ft 164 kts 248°
2026-04-19 16:15 35.76408 -77.25803 675 ft 173 kts 243°
2026-04-19 16:15 35.75623 -77.26937 677 ft 179 kts 234°
2026-04-19 16:15 35.74661 -77.27954 678 ft 184 kts 224°
2026-04-19 16:16 35.73603 -77.28813 682 ft 168 kts 218°
2026-04-19 16:16 35.72606 -77.29598 680 ft 175 kts 218°
2026-04-19 16:16 35.71561 -77.30378 674 ft 175 kts 218°
2026-04-19 16:16 35.70535 -77.31169 680 ft 172 kts 218°
2026-04-19 16:17 35.69506 -77.31922 671 ft 176 kts 218°
2026-04-19 16:17 35.68486 -77.32687 674 ft 170 kts 218°
2026-04-19 16:17 35.67483 -77.33449 680 ft 170 kts 218°
2026-04-19 16:17 35.66486 -77.34253 673 ft 169 kts 218°
2026-04-19 16:18 35.65468 -77.35005 675 ft 175 kts 218°
2026-04-19 16:18 35.64452 -77.35749 678 ft 167 kts 218°
2026-04-19 16:18 35.63423 -77.36492 676 ft 176 kts 218°
2026-04-19 16:18 35.62400 -77.37221 674 ft 170 kts 218°
2026-04-19 16:19 35.61375 -77.37949 676 ft 170 kts 218°
2026-04-19 16:19 35.60363 -77.38699 673 ft 165 kts 218°
2026-04-19 16:19 35.59379 -77.39320 678 ft 161 kts 214°
2026-04-19 16:19 35.58342 -77.39956 673 ft 171 kts 214°
2026-04-19 16:20 35.57254 -77.40586 643 ft 176 kts 214°
2026-04-19 16:20 35.56165 -77.41265 653 ft 172 kts 214°
2026-04-19 16:20 35.55063 -77.41934 655 ft 178 kts 214°
2026-04-19 16:20 35.53994 -77.42607 661 ft 171 kts 214°
2026-04-19 16:21 35.52899 -77.43265 658 ft 175 kts 214°
2026-04-19 16:21 35.51825 -77.43933 656 ft 174 kts 214°
2026-04-19 16:21 35.50713 -77.44602 660 ft 179 kts 214°
2026-04-19 16:21 35.49621 -77.45271 670 ft 173 kts 214°
2026-04-19 16:22 35.48525 -77.45960 674 ft 181 kts 214°
2026-04-19 16:22 35.47438 -77.46663 678 ft 175 kts 214°
2026-04-19 16:22 35.46326 -77.47353 656 ft 178 kts 214°
2026-04-19 16:22 35.45250 -77.48016 661 ft 176 kts 214°
2026-04-19 16:23 35.44149 -77.48690 663 ft 174 kts 214°
2026-04-19 16:23 35.43066 -77.49358 662 ft 173 kts 214°
2026-04-19 16:23 35.41989 -77.50042 660 ft 174 kts 214°
2026-04-19 16:23 35.40930 -77.50736 657 ft 171 kts 214°
2026-04-19 16:24 35.39866 -77.51430 656 ft 173 kts 214°
2026-04-19 16:24 35.38789 -77.52089 656 ft 176 kts 214°
2026-04-19 16:24 35.37692 -77.52735 657 ft 176 kts 214°
2026-04-19 16:24 35.36597 -77.53399 660 ft 177 kts 214°
2026-04-19 16:25 35.35506 -77.54090 655 ft 176 kts 214°
2026-04-19 16:25 35.34406 -77.54758 656 ft 178 kts 214°
2026-04-19 16:25 35.33319 -77.55417 658 ft 174 kts 214°
2026-04-19 16:25 35.32254 -77.56097 658 ft 178 kts 214°
2026-04-19 16:26 35.31161 -77.56745 657 ft 174 kts 214°
2026-04-19 16:26 35.30071 -77.57386 658 ft 172 kts 214°
2026-04-19 16:26 35.28968 -77.58026 657 ft 173 kts 214°
2026-04-19 16:26 35.27906 -77.58703 661 ft 173 kts 214°
2026-04-19 16:27 35.26802 -77.59332 655 ft 174 kts 214°
2026-04-19 16:27 35.25725 -77.59985 655 ft 175 kts 214°
2026-04-19 16:27 35.24621 -77.60634 658 ft 176 kts 214°
2026-04-19 16:27 35.23528 -77.61346 660 ft 176 kts 214°
2026-04-19 16:28 35.22445 -77.62011 659 ft 174 kts 214°
2026-04-19 16:28 35.21370 -77.62716 660 ft 172 kts 214°
2026-04-19 16:28 35.20286 -77.63371 658 ft 178 kts 214°
2026-04-19 16:28 35.19193 -77.64063 663 ft 176 kts 214°
2026-04-19 16:29 35.18096 -77.64695 661 ft 169 kts 214°
2026-04-19 16:29 35.17055 -77.65351 663 ft 172 kts 214°
2026-04-19 16:29 35.15995 -77.66009 664 ft 162 kts 216°
2026-04-19 16:29 35.15159 -77.66836 678 ft 149 kts 235°
2026-04-19 16:30 35.14472 -77.67750 676 ft 143 kts 236°
2026-04-19 16:30 35.13782 -77.68608 675 ft 141 kts 236°
2026-04-19 16:30 35.13147 -77.69493 674 ft 139 kts 236°
2026-04-19 16:30 35.12477 -77.70336 671 ft 137 kts 236°
2026-04-19 16:31 35.11814 -77.71153 665 ft 134 kts 236°
2026-04-19 16:31 35.11182 -77.71968 672 ft 131 kts 236°
2026-04-19 16:31 35.10568 -77.72792 666 ft 131 kts 236°
2026-04-19 16:31 35.09929 -77.73591 665 ft 132 kts 236°
2026-04-19 16:32 35.09310 -77.74430 665 ft 134 kts 236°
2026-04-19 16:32 35.08687 -77.75282 666 ft 135 kts 236°
2026-04-19 16:32 35.08026 -77.76106 658 ft 136 kts 236°
2026-04-19 16:32 35.07369 -77.76927 656 ft 135 kts 236°
2026-04-19 16:33 35.06708 -77.77734 665 ft 135 kts 236°
2026-04-19 16:33 35.06004 -77.78498 663 ft 136 kts 236°
2026-04-19 16:33 35.05342 -77.79310 658 ft 133 kts 236°
2026-04-19 16:33 35.04667 -77.80114 654 ft 146 kts 232°
2026-04-19 16:34 35.04088 -77.80641 652 ft 165 kts 224°
2026-04-19 16:34 35.03138 -77.81509 691 ft 175 kts 224°
2026-04-19 16:34 35.02192 -77.82430 700 ft 173 kts 224°
2026-04-19 16:34 35.01229 -77.83330 701 ft 171 kts 224°
2026-04-19 16:35 35.00255 -77.84226 700 ft 177 kts 224°
2026-04-19 16:35 34.99289 -77.85137 693 ft 177 kts 224°
2026-04-19 16:35 34.98350 -77.86043 701 ft 164 kts 223°
2026-04-19 16:35 34.97391 -77.86845 703 ft 173 kts 220°
2026-04-19 16:36 34.96429 -77.87682 707 ft 173 kts 220°
2026-04-19 16:36 34.95404 -77.88503 702 ft 174 kts 220°
2026-04-19 16:36 34.94393 -77.89314 701 ft 174 kts 220°
2026-04-19 16:36 34.93372 -77.90118 702 ft 178 kts 220°
2026-04-19 16:37 34.92353 -77.90893 704 ft 173 kts 220°
2026-04-19 16:37 34.91319 -77.91676 698 ft 169 kts 220°
2026-04-19 16:37 34.90325 -77.92491 705 ft 177 kts 220°
2026-04-19 16:37 34.89293 -77.93279 699 ft 173 kts 220°
2026-04-19 16:38 34.88252 -77.94090 695 ft 180 kts 220°
2026-04-19 16:38 34.87204 -77.94891 699 ft 177 kts 220°
2026-04-19 16:38 34.86183 -77.95694 668 ft 176 kts 220°
2026-04-19 16:38 34.85168 -77.96499 625 ft 175 kts 220°
2026-04-19 16:39 34.84118 -77.97338 627 ft 184 kts 220°
2026-04-19 16:39 34.83021 -77.98135 632 ft 182 kts 217°
2026-04-19 16:39 34.81931 -77.98889 635 ft 181 kts 217°
2026-04-19 16:39 34.80839 -77.99644 633 ft 173 kts 217°
2026-04-19 16:40 34.79780 -78.00390 633 ft 180 kts 217°
2026-04-19 16:40 34.78710 -78.01181 630 ft 175 kts 217°
2026-04-19 16:40 34.77658 -78.01928 633 ft 175 kts 217°
2026-04-19 16:40 34.76590 -78.02703 632 ft 182 kts 217°
2026-04-19 16:41 34.75491 -78.03483 634 ft 180 kts 217°
2026-04-19 16:41 34.74395 -78.04243 631 ft 179 kts 217°
2026-04-19 16:41 34.73332 -78.04995 631 ft 178 kts 217°
2026-04-19 16:41 34.72269 -78.05732 633 ft 171 kts 217°
2026-04-19 16:42 34.71232 -78.06455 632 ft 175 kts 217°
2026-04-19 16:42 34.70171 -78.07212 641 ft 175 kts 217°
2026-04-19 16:42 34.69080 -78.07943 639 ft 182 kts 217°
2026-04-19 16:42 34.68009 -78.08723 641 ft 176 kts 217°
2026-04-19 16:43 34.66927 -78.09493 639 ft 181 kts 217°
2026-04-19 16:43 34.65869 -78.10272 636 ft 177 kts 217°
2026-04-19 16:43 34.64799 -78.11034 639 ft 181 kts 217°
2026-04-19 16:43 34.63732 -78.11805 638 ft 177 kts 217°
2026-04-19 16:44 34.62640 -78.12577 638 ft 186 kts 217°
2026-04-19 16:44 34.61571 -78.13363 634 ft 177 kts 217°
2026-04-19 16:44 34.60510 -78.14132 637 ft 173 kts 217°
2026-04-19 16:44 34.59454 -78.14864 635 ft 178 kts 217°
2026-04-19 16:45 34.58377 -78.15619 633 ft 183 kts 217°
2026-04-19 16:45 34.57294 -78.16359 632 ft 180 kts 217°
2026-04-19 16:45 34.56184 -78.17110 627 ft 182 kts 217°
2026-04-19 16:45 34.55095 -78.17879 632 ft 185 kts 217°
2026-04-19 16:46 34.53998 -78.18661 631 ft 176 kts 217°
2026-04-19 16:46 34.52943 -78.19427 631 ft 181 kts 217°
2026-04-19 16:46 34.51845 -78.20183 628 ft 175 kts 217°
2026-04-19 16:46 34.50762 -78.20930 629 ft 184 kts 217°
2026-04-19 16:47 34.49673 -78.21699 628 ft 181 kts 217°
2026-04-19 16:47 34.48580 -78.22514 626 ft 179 kts 217°
2026-04-19 16:47 34.47529 -78.23300 624 ft 175 kts 217°
2026-04-19 16:47 34.46500 -78.24072 653 ft 181 kts 217°
2026-04-19 16:48 34.45438 -78.24892 661 ft 181 kts 217°
2026-04-19 16:48 34.44334 -78.25660 651 ft 186 kts 217°
2026-04-19 16:48 34.43244 -78.26455 656 ft 177 kts 217°
2026-04-19 16:48 34.42172 -78.27231 646 ft 179 kts 217°
2026-04-19 16:49 34.41154 -78.28009 650 ft 176 kts 217°
2026-04-19 16:49 34.40100 -78.28792 656 ft 177 kts 217°
2026-04-19 16:49 34.39058 -78.29549 656 ft 176 kts 217°
2026-04-19 16:49 34.37981 -78.30281 656 ft 180 kts 217°
2026-04-19 16:50 34.36897 -78.31038 660 ft 175 kts 217°
2026-04-19 16:50 34.35849 -78.31777 662 ft 177 kts 217°
2026-04-19 16:50 34.34830 -78.32536 659 ft 172 kts 217°
2026-04-19 16:50 34.33783 -78.33303 660 ft 177 kts 217°
2026-04-19 16:51 34.32737 -78.34067 670 ft 178 kts 217°
2026-04-19 16:51 34.31677 -78.34824 673 ft 175 kts 217°
2026-04-19 16:51 34.30632 -78.35574 676 ft 176 kts 217°
2026-04-19 16:51 34.29600 -78.36341 675 ft 175 kts 217°
2026-04-19 16:52 34.28572 -78.37136 672 ft 176 kts 217°
2026-04-19 16:52 34.27512 -78.37899 672 ft 177 kts 217°
2026-04-19 16:52 34.26474 -78.38649 675 ft 176 kts 217°
2026-04-19 16:52 34.25412 -78.39378 670 ft 176 kts 217°
2026-04-19 16:53 34.24371 -78.40144 681 ft 176 kts 217°
2026-04-19 16:53 34.23306 -78.40912 680 ft 172 kts 217°
2026-04-19 16:53 34.22271 -78.41673 678 ft 175 kts 217°
2026-04-19 16:53 34.21242 -78.42430 684 ft 173 kts 217°
2026-04-19 16:54 34.20213 -78.43176 683 ft 170 kts 217°
2026-04-19 16:54 34.19183 -78.43917 686 ft 177 kts 217°
2026-04-19 16:54 34.18183 -78.44702 680 ft 172 kts 217°
2026-04-19 16:54 34.17202 -78.45451 685 ft 167 kts 217°
2026-04-19 16:55 34.16227 -78.46227 684 ft 163 kts 217°
2026-04-19 16:55 34.14236 -78.47745 686 ft 174 kts 217°
2026-04-19 16:55 34.13199 -78.48498 685 ft 170 kts 217°
2026-04-19 16:56 34.12170 -78.49257 683 ft 175 kts 217°
2026-04-19 16:56 34.11150 -78.49991 677 ft 173 kts 217°
2026-04-19 16:56 34.10136 -78.50727 681 ft 169 kts 217°
2026-04-19 16:56 34.09137 -78.51464 682 ft 166 kts 217°
2026-04-19 16:57 34.08106 -78.52183 675 ft 168 kts 217°
2026-04-19 16:57 34.07120 -78.52891 676 ft 168 kts 217°
2026-04-19 16:57 34.06143 -78.53590 677 ft 164 kts 217°
2026-04-19 16:57 34.05148 -78.54337 665 ft 167 kts 217°
2026-04-19 16:58 34.04160 -78.55109 674 ft 172 kts 217°
2026-04-19 16:58 34.03156 -78.55869 656 ft 169 kts 217°
2026-04-19 16:58 34.02148 -78.56643 655 ft 171 kts 217°
2026-04-19 16:58 34.01141 -78.57400 660 ft 171 kts 217°
2026-04-19 16:59 34.00114 -78.58142 656 ft 173 kts 217°
2026-04-19 16:59 33.99101 -78.58903 655 ft 169 kts 217°
2026-04-19 16:59 33.98095 -78.59668 652 ft 175 kts 217°
2026-04-19 16:59 33.97114 -78.60424 659 ft 164 kts 217°
2026-04-19 17:00 33.96129 -78.61134 659 ft 163 kts 217°
2026-04-19 17:00 33.95146 -78.61865 652 ft 167 kts 217°
2026-04-19 17:00 33.94154 -78.62590 658 ft 165 kts 217°
2026-04-19 17:00 33.93176 -78.63321 659 ft 167 kts 217°
2026-04-19 17:01 33.92200 -78.64059 658 ft 167 kts 217°
2026-04-19 17:01 33.91218 -78.64808 654 ft 169 kts 217°
2026-04-19 17:01 33.90229 -78.65568 663 ft 168 kts 217°
2026-04-19 17:01 33.89227 -78.66314 665 ft 174 kts 217°
2026-04-19 17:02 33.88176 -78.67086 665 ft 177 kts 217°
2026-04-19 17:02 33.87169 -78.67817 668 ft 173 kts 217°
2026-04-19 17:02 33.86145 -78.68551 666 ft 173 kts 217°
2026-04-19 17:02 33.85110 -78.69308 671 ft 176 kts 217°
2026-04-19 17:03 33.84050 -78.70088 667 ft 178 kts 217°
2026-04-19 17:03 33.83002 -78.70869 665 ft 176 kts 217°
2026-04-19 17:03 33.82057 -78.71670 664 ft 159 kts 227°
2026-04-19 17:03 33.81277 -78.72601 665 ft 163 kts 232°
2026-04-19 17:04 33.80482 -78.73630 664 ft 172 kts 232°
2026-04-19 17:04 33.79656 -78.74685 673 ft 173 kts 232°
2026-04-19 17:04 33.78868 -78.75749 677 ft 167 kts 232°
2026-04-19 17:04 33.78073 -78.76782 676 ft 162 kts 232°
2026-04-19 17:05 33.77296 -78.77795 680 ft 169 kts 232°
2026-04-19 17:05 33.76489 -78.78799 680 ft 169 kts 232°
2026-04-19 17:05 33.75692 -78.79870 684 ft 174 kts 234°
2026-04-19 17:05 33.74892 -78.80984 688 ft 176 kts 234°
2026-04-19 17:06 33.74096 -78.82094 692 ft 175 kts 234°
2026-04-19 17:06 33.73297 -78.83200 690 ft 175 kts 234°
2026-04-19 17:06 33.72492 -78.84286 696 ft 174 kts 234°
2026-04-19 17:06 33.71695 -78.85378 697 ft 173 kts 234°
2026-04-19 17:07 33.70871 -78.86433 697 ft 173 kts 234°
2026-04-19 17:07 33.70069 -78.87510 695 ft 172 kts 234°
2026-04-19 17:07 33.69264 -78.88576 694 ft 172 kts 234°
2026-04-19 17:07 33.68568 -78.89561 702 ft 134 kts 235°
2026-04-19 17:08 33.67996 -78.90298 710 ft 110 kts 235°
2026-04-19 17:08 33.67477 -78.90891 698 ft 109 kts 235°
2026-04-19 17:08 33.66862 -78.91693 691 ft 144 kts 235°
2026-04-19 17:08 33.66165 -78.92638 690 ft 157 kts 235°
2026-04-19 17:09 33.65416 -78.93636 691 ft 162 kts 235°
2026-04-19 17:09 33.64648 -78.94618 692 ft 164 kts 235°
2026-04-19 17:09 33.63884 -78.95635 689 ft 166 kts 235°
2026-04-19 17:09 33.63095 -78.96615 692 ft 161 kts 235°
2026-04-19 17:10 33.62388 -78.97567 695 ft 147 kts 235°
2026-04-19 17:10 33.61705 -78.98433 700 ft 139 kts 235°
2026-04-19 17:10 33.61034 -78.99244 698 ft 134 kts 235°
2026-04-19 17:10 33.60400 -79.00048 701 ft 132 kts 235°
2026-04-19 17:11 33.59743 -79.00803 699 ft 130 kts 235°
2026-04-19 17:11 33.59100 -79.01591 680 ft 143 kts 236°
2026-04-19 17:11 33.58424 -79.02584 689 ft 161 kts 239°
2026-04-19 17:11 33.57697 -79.03627 691 ft 159 kts 239°
2026-04-19 17:12 33.57010 -79.04669 689 ft 163 kts 239°
2026-04-19 17:12 33.56305 -79.05742 694 ft 164 kts 239°
2026-04-19 17:12 33.55596 -79.06830 691 ft 167 kts 239°
2026-04-19 17:12 33.54885 -79.07929 688 ft 164 kts 239°
2026-04-19 17:13 33.54161 -79.08984 694 ft 165 kts 239°
2026-04-19 17:13 33.53440 -79.10044 696 ft 159 kts 239°
2026-04-19 17:13 33.52743 -79.11109 691 ft 166 kts 239°
2026-04-19 17:13 33.52027 -79.12210 689 ft 165 kts 239°
2026-04-19 17:14 33.51342 -79.13317 694 ft 168 kts 239°
2026-04-19 17:14 33.50647 -79.14417 643 ft 165 kts 239°
2026-04-19 17:14 33.49996 -79.15494 652 ft 160 kts 239°
2026-04-19 17:14 33.49342 -79.16579 655 ft 167 kts 239°
2026-04-19 17:15 33.48648 -79.17710 655 ft 161 kts 239°
2026-04-19 17:15 33.47978 -79.18781 660 ft 166 kts 239°
2026-04-19 17:15 33.47295 -79.19928 653 ft 164 kts 239°
2026-04-19 17:15 33.46625 -79.21046 651 ft 169 kts 239°
2026-04-19 17:16 33.45973 -79.22179 649 ft 165 kts 239°
2026-04-19 17:16 33.45303 -79.23313 653 ft 165 kts 239°
2026-04-19 17:16 33.44650 -79.24424 649 ft 163 kts 239°
2026-04-19 17:16 33.43990 -79.25541 651 ft 166 kts 239°
2026-04-19 17:17 33.43308 -79.26653 651 ft 166 kts 239°
2026-04-19 17:17 33.42607 -79.27747 655 ft 167 kts 239°
2026-04-19 17:17 33.41893 -79.28861 648 ft 164 kts 239°
2026-04-19 17:17 33.41219 -79.29883 656 ft 148 kts 234°
2026-04-19 17:18 33.40528 -79.30867 650 ft 160 kts 235°
2026-04-19 17:18 33.39789 -79.31884 652 ft 160 kts 234°
2026-04-19 17:18 33.39042 -79.32914 652 ft 167 kts 234°
2026-04-19 17:18 33.38281 -79.33966 650 ft 169 kts 234°
2026-04-19 17:19 33.37771 -79.34656 652 ft 168 kts 235°
2026-04-19 17:19 33.37004 -79.35691 649 ft 167 kts 235°
2026-04-19 17:19 33.36230 -79.36748 650 ft 166 kts 235°
2026-04-19 17:19 33.35484 -79.37775 652 ft 165 kts 235°
2026-04-19 17:20 33.34724 -79.38812 650 ft 163 kts 234°
2026-04-19 17:20 33.33993 -79.39856 651 ft 166 kts 235°
2026-04-19 17:20 33.33236 -79.40918 651 ft 167 kts 235°
2026-04-19 17:20 33.32461 -79.41997 660 ft 174 kts 235°
2026-04-19 17:21 33.31688 -79.43038 673 ft 166 kts 235°
2026-04-19 17:21 33.30903 -79.44064 668 ft 165 kts 235°
2026-04-19 17:21 33.30165 -79.45131 664 ft 167 kts 235°
2026-04-19 17:21 33.29430 -79.46185 668 ft 165 kts 235°
2026-04-19 17:22 33.28687 -79.47210 667 ft 165 kts 235°
2026-04-19 17:22 33.27942 -79.48256 671 ft 164 kts 235°
2026-04-19 17:22 33.27187 -79.49305 669 ft 168 kts 235°
2026-04-19 17:22 33.26430 -79.50338 669 ft 167 kts 235°
2026-04-19 17:23 33.25684 -79.51381 670 ft 166 kts 235°
2026-04-19 17:23 33.24921 -79.52430 672 ft 170 kts 235°
2026-04-19 17:23 33.24152 -79.53489 666 ft 168 kts 235°
2026-04-19 17:23 33.23394 -79.54527 668 ft 165 kts 235°
2026-04-19 17:24 33.22639 -79.55598 672 ft 172 kts 235°
2026-04-19 17:24 33.21853 -79.56671 668 ft 173 kts 235°
2026-04-19 17:24 33.21084 -79.57754 666 ft 167 kts 235°
2026-04-19 17:24 33.20326 -79.58832 667 ft 172 kts 235°
2026-04-19 17:25 33.19567 -79.59913 666 ft 165 kts 235°
2026-04-19 17:25 33.18837 -79.60996 666 ft 169 kts 235°
2026-04-19 17:25 33.18066 -79.62065 669 ft 168 kts 235°
2026-04-19 17:25 33.17306 -79.63161 668 ft 174 kts 235°
2026-04-19 17:26 33.16495 -79.64210 667 ft 172 kts 235°
2026-04-19 17:26 33.15708 -79.65316 659 ft 175 kts 235°
2026-04-19 17:26 33.14909 -79.66387 655 ft 175 kts 235°
2026-04-19 17:26 33.14129 -79.67474 660 ft 168 kts 235°
2026-04-19 17:27 33.13341 -79.68533 657 ft 173 kts 235°
2026-04-19 17:27 33.12538 -79.69586 664 ft 173 kts 235°
2026-04-19 17:27 33.11743 -79.70650 665 ft 170 kts 235°
2026-04-19 17:27 33.10946 -79.71689 666 ft 173 kts 235°
2026-04-19 17:28 33.10149 -79.72749 672 ft 167 kts 235°
2026-04-19 17:28 33.09377 -79.73818 668 ft 170 kts 235°
2026-04-19 17:28 33.08622 -79.74870 669 ft 168 kts 235°
2026-04-19 17:28 33.07885 -79.75960 671 ft 170 kts 235°
2026-04-19 17:29 33.07108 -79.77032 670 ft 168 kts 235°
2026-04-19 17:29 33.06355 -79.78127 673 ft 174 kts 235°
2026-04-19 17:29 33.05568 -79.79221 665 ft 173 kts 235°
2026-04-19 17:29 33.04801 -79.80329 670 ft 177 kts 235°
2026-04-19 17:30 33.04021 -79.81447 656 ft 168 kts 235°
2026-04-19 17:30 33.03251 -79.82545 654 ft 177 kts 235°
2026-04-19 17:30 33.02488 -79.83668 653 ft 174 kts 235°
2026-04-19 17:30 33.01707 -79.84770 651 ft 176 kts 235°
2026-04-19 17:31 33.00882 -79.85869 651 ft 180 kts 235°
2026-04-19 17:31 33.00039 -79.86996 647 ft 180 kts 235°
2026-04-19 17:31 32.99227 -79.88094 654 ft 175 kts 235°
2026-04-19 17:31 32.98460 -79.89195 650 ft 171 kts 235°
2026-04-19 17:32 32.97690 -79.90273 654 ft 171 kts 235°
2026-04-19 17:32 32.96899 -79.91363 662 ft 176 kts 235°
2026-04-19 17:32 32.96083 -79.92464 658 ft 177 kts 235°
2026-04-19 17:32 32.95273 -79.93561 663 ft 177 kts 235°
2026-04-19 17:33 32.94522 -79.94562 665 ft 149 kts 235°
2026-04-19 17:33 32.93797 -79.95540 661 ft 164 kts 235°
2026-04-19 17:33 32.93040 -79.96591 661 ft 170 kts 235°
2026-04-19 17:33 32.92278 -79.97664 659 ft 173 kts 235°
2026-04-19 17:34 32.91495 -79.98760 661 ft 175 kts 235°
2026-04-19 17:34 32.90697 -79.99863 660 ft 177 kts 235°
2026-04-19 17:34 32.89862 -80.00965 660 ft 181 kts 235°
2026-04-19 17:34 32.89036 -80.02114 657 ft 183 kts 235°
2026-04-19 17:35 32.88195 -80.03239 659 ft 180 kts 235°
2026-04-19 17:35 32.87407 -80.04261 657 ft 169 kts 235°
2026-04-19 17:35 32.86451 -80.05147 657 ft 182 kts 215°
2026-04-19 17:35 32.85480 -80.05762 676 ft 139 kts 214°
2026-04-19 17:36 32.84677 -80.06182 678 ft 116 kts 214°
2026-04-19 17:36 32.83970 -80.06511 675 ft 103 kts 214°
2026-04-19 17:36 32.83339 -80.06830 671 ft 95 kts 214°
2026-04-19 17:36 32.82753 -80.07124 667 ft 89 kts 214°
2026-04-19 17:37 32.82189 -80.07368 664 ft 83 kts 214°
2026-04-19 17:37 32.81673 -80.07634 669 ft 80 kts 214°
2026-04-19 17:37 32.80989 -80.08009 641 ft 137 kts 214°
2026-04-19 17:37 32.80036 -80.08630 626 ft 173 kts 216°
2026-04-19 17:38 32.78961 -80.09430 667 ft 181 kts 217°
2026-04-19 17:38 32.77880 -80.10214 653 ft 182 kts 217°
2026-04-19 17:38 32.76810 -80.11034 652 ft 183 kts 217°
2026-04-19 17:38 32.75739 -80.11855 654 ft 184 kts 217°
2026-04-19 17:39 32.74698 -80.12687 649 ft 180 kts 217°
2026-04-19 17:39 32.73657 -80.13517 648 ft 179 kts 217°
2026-04-19 17:39 32.72621 -80.14329 652 ft 179 kts 217°
2026-04-19 17:39 32.71603 -80.15124 664 ft 166 kts 217°
2026-04-19 17:40 32.70596 -80.15873 656 ft 175 kts 217°
2026-04-19 17:40 32.69551 -80.16636 653 ft 174 kts 217°
2026-04-19 17:40 32.68513 -80.17408 651 ft 177 kts 217°
2026-04-19 17:40 32.67475 -80.18174 653 ft 177 kts 217°
2026-04-19 17:41 32.66477 -80.19012 661 ft 171 kts 223°
2026-04-19 17:41 32.65486 -80.19857 656 ft 178 kts 223°
2026-04-19 17:41 32.64505 -80.20716 654 ft 177 kts 223°
2026-04-19 17:41 32.63485 -80.21568 656 ft 178 kts 223°
2026-04-19 17:42 32.62512 -80.22420 655 ft 174 kts 223°
2026-04-19 17:42 32.61527 -80.23293 653 ft 174 kts 223°
2026-04-19 17:42 32.60578 -80.24134 653 ft 174 kts 223°
2026-04-19 17:42 32.59612 -80.24966 656 ft 173 kts 223°
2026-04-19 17:43 32.58648 -80.25830 656 ft 171 kts 223°
2026-04-19 17:43 32.57679 -80.26664 656 ft 177 kts 223°
2026-04-19 17:43 32.56714 -80.27554 658 ft 176 kts 223°
2026-04-19 17:43 32.55742 -80.28438 654 ft 174 kts 223°
2026-04-19 17:44 32.54781 -80.29333 652 ft 175 kts 223°
2026-04-19 17:44 32.53798 -80.30217 656 ft 180 kts 223°
2026-04-19 17:44 32.52821 -80.31125 653 ft 178 kts 223°
2026-04-19 17:44 32.51820 -80.32023 666 ft 182 kts 223°
2026-04-19 17:45 32.50825 -80.32913 664 ft 176 kts 223°
2026-04-19 17:45 32.49869 -80.33813 662 ft 171 kts 223°
2026-04-19 17:45 32.48908 -80.34680 665 ft 175 kts 223°
2026-04-19 17:45 32.47961 -80.35561 665 ft 172 kts 223°
2026-04-19 17:46 32.47016 -80.36419 661 ft 171 kts 223°
2026-04-19 17:46 32.46090 -80.37285 665 ft 167 kts 223°
2026-04-19 17:46 32.45149 -80.38142 661 ft 171 kts 223°
2026-04-19 17:46 32.44227 -80.39011 660 ft 169 kts 223°
2026-04-19 17:47 32.43294 -80.39869 666 ft 171 kts 223°
2026-04-19 17:47 32.42376 -80.40735 663 ft 170 kts 223°
2026-04-19 17:47 32.41448 -80.41599 665 ft 167 kts 223°
2026-04-19 17:47 32.40520 -80.42466 664 ft 173 kts 223°
2026-04-19 17:48 32.39550 -80.43336 666 ft 176 kts 223°
2026-04-19 17:48 32.38605 -80.44213 665 ft 173 kts 223°
2026-04-19 17:48 32.37583 -80.45024 667 ft 178 kts 216°
2026-04-19 17:48 32.36531 -80.45787 668 ft 179 kts 217°
2026-04-19 17:49 32.35491 -80.46548 669 ft 174 kts 217°
2026-04-19 17:49 32.34436 -80.47295 668 ft 177 kts 216°
2026-04-19 17:49 32.33397 -80.48042 667 ft 176 kts 217°
2026-04-19 17:49 32.32357 -80.48776 668 ft 173 kts 217°
2026-04-19 17:50 32.31312 -80.49516 669 ft 175 kts 217°
2026-04-19 17:50 32.30275 -80.50254 672 ft 174 kts 217°
2026-04-19 17:50 32.29264 -80.50984 668 ft 169 kts 217°
2026-04-19 17:50 32.28247 -80.51719 668 ft 170 kts 217°
2026-04-19 17:51 32.27234 -80.52443 669 ft 173 kts 217°
2026-04-19 17:51 32.26211 -80.53164 665 ft 168 kts 217°
2026-04-19 17:51 32.25216 -80.53925 667 ft 170 kts 217°
2026-04-19 17:51 32.24207 -80.54681 666 ft 170 kts 217°
2026-04-19 17:52 32.23202 -80.55429 667 ft 166 kts 217°
2026-04-19 17:52 32.22202 -80.56177 664 ft 172 kts 217°
2026-04-19 17:52 32.21183 -80.56940 666 ft 174 kts 217°
2026-04-19 17:52 32.20148 -80.57700 662 ft 175 kts 217°
2026-04-19 17:53 32.19131 -80.58452 665 ft 175 kts 217°
2026-04-19 17:53 32.18094 -80.59203 665 ft 176 kts 217°
2026-04-19 17:53 32.17045 -80.59974 666 ft 179 kts 217°
2026-04-19 17:53 32.15989 -80.60762 663 ft 181 kts 217°
2026-04-19 17:54 32.14912 -80.61538 654 ft 181 kts 217°
2026-04-19 17:54 32.13850 -80.62321 656 ft 180 kts 217°
2026-04-19 17:54 32.12796 -80.63113 687 ft 180 kts 217°
2026-04-19 17:54 32.11747 -80.63934 687 ft 182 kts 217°
2026-04-19 17:55 32.10681 -80.64735 684 ft 181 kts 217°
2026-04-19 17:55 32.09630 -80.65538 687 ft 179 kts 217°
2026-04-19 17:55 32.08571 -80.66308 683 ft 179 kts 217°
2026-04-19 17:55 32.07510 -80.67074 688 ft 179 kts 217°
2026-04-19 17:56 32.06446 -80.67846 686 ft 180 kts 217°
2026-04-19 17:56 32.05390 -80.68634 678 ft 178 kts 217°
2026-04-19 17:56 32.04340 -80.69416 672 ft 177 kts 217°
2026-04-19 17:56 32.03304 -80.70188 676 ft 177 kts 217°
2026-04-19 17:57 32.02250 -80.70951 672 ft 179 kts 217°
2026-04-19 17:57 32.01194 -80.71746 666 ft 180 kts 217°
2026-04-19 17:57 32.00173 -80.72543 671 ft 177 kts 217°
2026-04-19 17:57 31.99158 -80.73353 671 ft 175 kts 217°
2026-04-19 17:58 31.98151 -80.74161 670 ft 175 kts 217°
2026-04-19 17:58 31.97141 -80.74971 668 ft 176 kts 217°
2026-04-19 17:58 31.96130 -80.75787 666 ft 176 kts 217°
2026-04-19 17:58 31.95118 -80.76596 668 ft 175 kts 217°
2026-04-19 17:59 31.94108 -80.77392 665 ft 175 kts 217°
2026-04-19 17:59 31.93096 -80.78186 663 ft 172 kts 217°
2026-04-19 17:59 31.92204 -80.78877 665 ft 152 kts 217°
2026-04-19 17:59 31.91258 -80.79605 666 ft 168 kts 217°
2026-04-19 18:00 31.90264 -80.80371 671 ft 171 kts 217°
2026-04-19 18:00 31.89266 -80.81160 668 ft 173 kts 217°
2026-04-19 18:00 31.88261 -80.81957 667 ft 175 kts 217°
2026-04-19 18:00 31.87248 -80.82755 666 ft 176 kts 217°
2026-04-19 18:01 31.86231 -80.83555 658 ft 176 kts 217°
2026-04-19 18:01 31.85215 -80.84351 662 ft 175 kts 217°
2026-04-19 18:01 31.84269 -80.85083 669 ft 146 kts 217°
2026-04-19 18:01 31.83341 -80.85733 666 ft 162 kts 210°
2026-04-19 18:02 31.82280 -80.86289 666 ft 169 kts 207°
2026-04-19 18:02 31.81204 -80.86853 667 ft 170 kts 207°
2026-04-19 18:02 31.80495 -80.87222 665 ft 168 kts 207°
2026-04-19 18:02 31.79415 -80.87780 666 ft 170 kts 207°
2026-04-19 18:03 31.77980 -80.88527 667 ft 171 kts 207°
2026-04-19 18:03 31.76886 -80.89087 665 ft 172 kts 207°
2026-04-19 18:03 31.75796 -80.89646 665 ft 172 kts 207°
2026-04-19 18:03 31.74707 -80.90208 668 ft 170 kts 207°
2026-04-19 18:04 31.73983 -80.90588 668 ft 169 kts 207°
2026-04-19 18:04 31.72930 -80.91136 663 ft 168 kts 207°
2026-04-19 18:04 31.71836 -80.91679 667 ft 174 kts 207°
2026-04-19 18:04 31.70712 -80.92202 663 ft 173 kts 203°
2026-04-19 18:05 31.69588 -80.92670 665 ft 173 kts 203°
2026-04-19 18:05 31.68466 -80.93134 664 ft 172 kts 203°
2026-04-19 18:05 31.67345 -80.93591 665 ft 171 kts 203°
2026-04-19 18:05 31.66213 -80.94041 663 ft 171 kts 203°
2026-04-19 18:06 31.65080 -80.94486 668 ft 171 kts 203°
2026-04-19 18:06 31.63945 -80.94935 668 ft 172 kts 203°
2026-04-19 18:06 31.62804 -80.95377 670 ft 174 kts 203°
2026-04-19 18:06 31.61674 -80.95822 672 ft 171 kts 203°
2026-04-19 18:07 31.59428 -80.96753 669 ft 171 kts 203°
2026-04-19 18:07 31.58311 -80.97235 666 ft 171 kts 203°
2026-04-19 18:07 31.57194 -80.97721 666 ft 170 kts 203°
2026-04-19 18:08 31.56080 -80.98182 661 ft 171 kts 203°
2026-04-19 18:08 31.54957 -80.98650 666 ft 172 kts 203°
2026-04-19 18:08 31.53848 -80.99117 667 ft 171 kts 203°
2026-04-19 18:08 31.52726 -80.99585 668 ft 170 kts 203°
2026-04-19 18:09 31.51619 -81.00071 668 ft 169 kts 203°
2026-04-19 18:09 31.50522 -81.00530 668 ft 170 kts 203°
2026-04-19 18:09 31.49412 -81.00989 668 ft 171 kts 203°
2026-04-19 18:09 31.48281 -81.01442 672 ft 174 kts 203°
2026-04-19 18:10 31.47173 -81.01922 671 ft 167 kts 203°
2026-04-19 18:10 31.46086 -81.02408 668 ft 167 kts 203°
2026-04-19 18:10 31.44995 -81.02903 667 ft 168 kts 203°
2026-04-19 18:10 31.43902 -81.03400 674 ft 168 kts 203°
2026-04-19 18:11 31.42812 -81.03888 678 ft 167 kts 203°
2026-04-19 18:11 31.41732 -81.04374 677 ft 167 kts 203°
2026-04-19 18:11 31.40666 -81.04860 680 ft 167 kts 203°
2026-04-19 18:11 31.39575 -81.05358 680 ft 167 kts 203°
2026-04-19 18:12 31.38485 -81.05845 678 ft 168 kts 203°
2026-04-19 18:12 31.37388 -81.06338 680 ft 168 kts 203°
2026-04-19 18:12 31.36293 -81.06835 676 ft 169 kts 203°
2026-04-19 18:12 31.35201 -81.07323 674 ft 165 kts 204°
2026-04-19 18:13 31.34117 -81.07805 679 ft 166 kts 203°
2026-04-19 18:13 31.33023 -81.08290 677 ft 168 kts 203°
2026-04-19 18:13 31.31934 -81.08767 677 ft 167 kts 203°
2026-04-19 18:13 31.30841 -81.09250 682 ft 169 kts 203°
2026-04-19 18:14 31.29747 -81.09743 681 ft 169 kts 203°
2026-04-19 18:14 31.28665 -81.10225 683 ft 167 kts 203°
2026-04-19 18:14 31.27559 -81.10724 676 ft 169 kts 203°
2026-04-19 18:14 31.26462 -81.11217 681 ft 169 kts 203°
2026-04-19 18:15 31.25387 -81.11702 685 ft 168 kts 203°
2026-04-19 18:15 31.24288 -81.12196 681 ft 167 kts 204°
2026-04-19 18:15 31.23214 -81.12669 688 ft 167 kts 203°
2026-04-19 18:15 31.22111 -81.13158 686 ft 166 kts 203°
2026-04-19 18:16 31.21044 -81.13645 686 ft 167 kts 204°
2026-04-19 18:16 31.19951 -81.14150 685 ft 167 kts 203°
2026-04-19 18:16 31.18886 -81.14644 681 ft 166 kts 203°
2026-04-19 18:16 31.17810 -81.15135 682 ft 166 kts 203°
2026-04-19 18:17 31.16733 -81.15630 681 ft 167 kts 203°
2026-04-19 18:17 31.15646 -81.16123 681 ft 168 kts 203°
2026-04-19 18:17 31.14561 -81.16616 680 ft 167 kts 203°
2026-04-19 18:17 31.13481 -81.17106 682 ft 167 kts 203°
2026-04-19 18:18 31.12402 -81.17596 681 ft 166 kts 203°
2026-04-19 18:18 31.11322 -81.18088 678 ft 167 kts 203°
2026-04-19 18:18 31.10237 -81.18585 677 ft 167 kts 203°
2026-04-19 18:18 31.09154 -81.19082 679 ft 168 kts 203°
2026-04-19 18:19 31.08072 -81.19573 679 ft 166 kts 203°
2026-04-19 18:19 31.06994 -81.20064 681 ft 167 kts 203°
2026-04-19 18:19 31.05912 -81.20558 682 ft 167 kts 204°
2026-04-19 18:19 31.04828 -81.21054 682 ft 168 kts 204°
2026-04-19 18:20 31.03744 -81.21548 680 ft 168 kts 204°
2026-04-19 18:20 31.02661 -81.22035 680 ft 166 kts 204°
2026-04-19 18:20 31.01578 -81.22520 679 ft 167 kts 204°
2026-04-19 18:20 31.00485 -81.23010 677 ft 169 kts 204°
2026-04-19 18:21 30.99394 -81.23506 677 ft 168 kts 203°
2026-04-19 18:21 30.98312 -81.23998 681 ft 167 kts 204°
2026-04-19 18:21 30.97229 -81.24489 680 ft 167 kts 204°
2026-04-19 18:21 30.96156 -81.24983 680 ft 169 kts 203°
2026-04-19 18:22 30.95070 -81.25486 680 ft 167 kts 204°
2026-04-19 18:22 30.93981 -81.25987 678 ft 168 kts 204°
2026-04-19 18:22 30.92893 -81.26489 674 ft 168 kts 204°
2026-04-19 18:22 30.91806 -81.26993 672 ft 168 kts 204°
2026-04-19 18:23 30.90719 -81.27499 676 ft 168 kts 204°
2026-04-19 18:23 30.89633 -81.28006 680 ft 168 kts 204°
2026-04-19 18:23 30.88542 -81.28505 677 ft 170 kts 203°
2026-04-19 18:23 30.87445 -81.28988 679 ft 169 kts 204°
2026-04-19 18:24 30.86331 -81.29479 680 ft 172 kts 204°
2026-04-19 18:24 30.85206 -81.29958 683 ft 172 kts 204°
2026-04-19 18:24 30.84096 -81.30445 685 ft 169 kts 204°
2026-04-19 18:24 30.83002 -81.30902 684 ft 167 kts 204°
2026-04-19 18:25 30.81905 -81.31369 685 ft 169 kts 204°
2026-04-19 18:25 30.80793 -81.31852 684 ft 172 kts 204°
2026-04-19 18:25 30.79688 -81.32352 685 ft 170 kts 204°
2026-04-19 18:25 30.78577 -81.32837 684 ft 168 kts 204°
2026-04-19 18:26 30.77472 -81.33302 683 ft 170 kts 204°
2026-04-19 18:26 30.76371 -81.33761 690 ft 171 kts 204°
2026-04-19 18:26 30.75256 -81.34237 685 ft 169 kts 204°
2026-04-19 18:26 30.74155 -81.34718 686 ft 170 kts 204°
2026-04-19 18:27 30.73058 -81.35205 686 ft 168 kts 204°
2026-04-19 18:27 30.71962 -81.35689 690 ft 170 kts 204°
2026-04-19 18:27 30.70838 -81.36150 692 ft 172 kts 204°
2026-04-19 18:27 30.69699 -81.36615 686 ft 172 kts 204°
2026-04-19 18:28 30.68572 -81.37082 690 ft 173 kts 204°
2026-04-19 18:28 30.67432 -81.37552 692 ft 174 kts 204°
2026-04-19 18:28 30.66293 -81.38026 692 ft 171 kts 204°
2026-04-19 18:28 30.65179 -81.38532 693 ft 172 kts 204°
2026-04-19 18:29 30.64080 -81.39034 688 ft 170 kts 204°
2026-04-19 18:29 30.62971 -81.39509 682 ft 171 kts 204°
2026-04-19 18:29 30.61847 -81.39979 688 ft 172 kts 204°
2026-04-19 18:29 30.60724 -81.40455 690 ft 171 kts 204°
2026-04-19 18:30 30.59624 -81.40951 690 ft 169 kts 204°
2026-04-19 18:30 30.58522 -81.41435 686 ft 167 kts 204°
2026-04-19 18:30 30.57426 -81.41917 691 ft 169 kts 204°
2026-04-19 18:30 30.56316 -81.42404 691 ft 171 kts 204°
2026-04-19 18:31 30.55201 -81.42901 687 ft 171 kts 204°
2026-04-19 18:31 30.54088 -81.43379 686 ft 171 kts 204°
2026-04-19 18:31 30.52982 -81.43858 690 ft 169 kts 204°
2026-04-19 18:31 30.51891 -81.44328 689 ft 169 kts 204°
2026-04-19 18:32 30.50785 -81.44815 690 ft 171 kts 204°
2026-04-19 18:32 30.49671 -81.45319 687 ft 172 kts 204°
2026-04-19 18:32 30.48562 -81.45825 690 ft 171 kts 204°
2026-04-19 18:32 30.47451 -81.46317 689 ft 172 kts 204°
2026-04-19 18:33 30.46330 -81.46798 692 ft 172 kts 204°
2026-04-19 18:33 30.45223 -81.47301 690 ft 169 kts 204°
2026-04-19 18:33 30.44136 -81.47796 688 ft 167 kts 204°
2026-04-19 18:33 30.43051 -81.48305 687 ft 169 kts 204°
2026-04-19 18:34 30.41951 -81.48790 684 ft 170 kts 204°
2026-04-19 18:34 30.40844 -81.49297 684 ft 170 kts 204°
2026-04-19 18:34 30.39749 -81.49788 692 ft 169 kts 204°
2026-04-19 18:34 30.38658 -81.50284 688 ft 168 kts 204°
2026-04-19 18:35 30.37561 -81.50766 689 ft 168 kts 204°
2026-04-19 18:35 30.36467 -81.51242 692 ft 169 kts 204°
2026-04-19 18:35 30.35370 -81.51743 687 ft 168 kts 204°
2026-04-19 18:35 30.34281 -81.52238 689 ft 169 kts 204°
2026-04-19 18:36 30.33190 -81.52747 690 ft 169 kts 204°
2026-04-19 18:36 30.32091 -81.53239 689 ft 168 kts 204°
2026-04-19 18:36 30.31011 -81.53731 690 ft 169 kts 204°
2026-04-19 18:36 30.29925 -81.54232 688 ft 168 kts 204°
2026-04-19 18:37 30.28843 -81.54745 688 ft 168 kts 204°
2026-04-19 18:37 30.27764 -81.55251 685 ft 168 kts 204°
2026-04-19 18:37 30.26671 -81.55752 690 ft 169 kts 204°
2026-04-19 18:37 30.25576 -81.56261 686 ft 169 kts 204°
2026-04-19 18:38 30.24492 -81.56755 693 ft 167 kts 204°
2026-04-19 18:38 30.23424 -81.57255 689 ft 168 kts 204°
2026-04-19 18:38 30.22338 -81.57790 700 ft 166 kts 204°
2026-04-19 18:38 30.21272 -81.58327 700 ft 167 kts 204°
2026-04-19 18:39 30.20217 -81.58866 697 ft 166 kts 204°
2026-04-19 18:39 30.19439 -81.59265 697 ft 166 kts 204°
2026-04-19 18:39 30.18399 -81.59805 698 ft 166 kts 205°
2026-04-19 18:39 30.17392 -81.60488 691 ft 167 kts 206°
2026-04-19 18:40 30.16284 -81.60471 708 ft 161 kts 155°
2026-04-19 18:40 30.15605 -81.59463 695 ft 169 kts 113°
2026-04-19 18:40 30.15208 -81.58190 697 ft 168 kts 111°
2026-04-19 18:40 30.14815 -81.56928 695 ft 169 kts 111°
2026-04-19 18:41 30.14411 -81.55652 682 ft 170 kts 111°
2026-04-19 18:41 30.14019 -81.54474 479 ft 126 kts 117°
2026-04-19 18:41 30.13710 -81.53783 254 ft 64 kts 118°
2026-04-19 18:41 30.13661 -81.53583 184 ft 9 kts 84°
2026-04-19 18:42 30.13706 -81.53492 84 ft 9 kts 30°
2026-04-19 18:42 30.13723 -81.53484 40 ft 0 kts